Location: Luz Observatory
(34.5000°N, 117.2833°W)
Time: 02:13:03
(UTC-07:00)

Cosmos 1484 Rocket - Visible Passes

Search period start: 02 September 2014 00:00
Search period end: 12 September 2014 00:00
Orbit: 515 x 575 km, 97.4° (Epoch: 01 September)

Date Brightness Start Highest point End Pass type
(mag) Time Alt. Az. Time Alt. Az. Time Alt. Az.
02 Sep 2.7 20:19:25 10° S 20:23:10 84° WSW 20:26:55 10° NNW visible
03 Sep 2.6 20:13:33 10° SSE 20:17:17 81° ENE 20:21:03 10° N visible
04 Sep 2.6 20:07:43 10° SSE 20:11:25 66° ENE 20:15:09 10° N visible
05 Sep 2.8 20:01:55 10° SSE 20:05:33 54° ENE 20:09:14 10° N visible
06 Sep 3.0 19:56:07 10° SSE 19:59:41 45° ENE 20:03:18 10° N visible
07 Sep 3.3 19:50:22 10° SE 19:53:50 37° ENE 19:57:19 10° N visible
07 Sep 5.9 21:27:47 10° WSW 21:28:37 11° W 21:29:28 10° W visible
08 Sep 3.5 19:44:38 10° SE 19:47:58 31° ENE 19:51:20 10° N visible
08 Sep 5.7 21:20:58 10° WSW 21:22:41 13° W 21:24:26 10° WNW visible
09 Sep 3.7 19:38:57 10° SE 19:42:07 26° ENE 19:45:18 10° NNE visible
09 Sep 5.6 21:14:31 10° SW 21:16:45 15° W 21:19:01 10° WNW visible
10 Sep 4.0 19:33:18 10° SE 19:36:15 23° ENE 19:39:15 10° NNE visible
10 Sep 5.4 21:08:12 10° SW 21:10:49 18° W 21:13:28 10° NW visible
11 Sep 4.2 19:27:42 10° ESE 19:30:24 19° ENE 19:33:08 10° NNE visible
11 Sep 5.1 21:01:59 10° SSW 21:04:54 21° W 21:07:51 10° NW visible
